User: anonymous   Login
Location: Muenchen
(48.1800°N, 11.5800°E)
Time: 11:18:57
(UTC+02:00)
Language:

Sich 1 Rocket - Orbit

View from above orbital plane
View from above orbital plane
View from above satellite
View from above satellite

Ground track
Ground track

The orbit data is extracted from the following two-line orbital elements,

1 23659U 95046C   17083.94365358 +.00000090 +00000-0 +90576-5 0  9992
2 23659 082.5329 023.6136 0026484 146.7010 281.3215 14.78232492161787
Epoch (UTC): 24 March 2017 22:38:51
Eccentricity: 0.0026484
inclination: 82.5329°
perigee height: 616 km
apogee height: 653 km
right ascension of ascending node: 23.6136°
argument of perigee: 146.7010°
revolutions per day: 14.78232492
mean anomaly at epoch: 281.3215°
orbit number at epoch: 16178

The dashed part of the orbit path shows where the satellite is in the earth's shadow,  

DLR